[[{"header":{"parameterUnit":"m.s-1","parameterCategory":1,"la1":30.2991,"la2":30.254,"lo1":-89.0895,"lo2":-89.0444,"dy":0.0017,"dx":0.0017,"nx":28,"ny":28,"refTime":"2026-02-25T03:00:00:Z","depth":0,"parameterNumber":2,"parameterNumberName":"U-component_of_WINDS"},"data":[0,0,0,0,0,0,0,0,0,0,0,0,0,0,0,0,0,0,0,0,0,0,0,0,0,0,0,0,0,0,0,0,0,0,0,0,0,0,0,0,0,0,0,0,0,0,0,0,0,0,0,0,0,0,0,0,0,0,-0.3153,-0.3153,0,-0.3206,-0.3207,-0.3207,-0.3247,-0.3247,-0.3247,-0.3248,-0.3302,-0.3303,-0.3304,0,0,0,0,0,0,0,0,0,0,0,0,0,-0.3084,-0.3085,-0.3153,-0.3153,-0.3154,-0.3206,-0.3207,-0.3208,-0.3247,-0.3247,-0.3247,-0.3248,-0.3302,-0.3303,-0.3305,0,0,0,0,0,0,0,0,0,0,0,0,0,-0.3123,-0.3085,-0.3152,-0.318,-0.3183,-0.3206,-0.3207,-0.3208,-0.3247,-0.3247,-0.3248,-0.3248,-0.3301,-0.3303,-0.3305,-0.3305,0,0,-0.331,-0.3311,0,0,0,0,0,0,0,0,-0.3121,-0.3126,-0.3175,-0.3178,-0.3181,-0.322,-0.3203,-0.324,-0.3246,-0.3222,-0.3248,-0.3248,-0.3275,-0.3278,-0.3287,-0.3308,-0.331,-0.331,-0.3311,-0.3312,-0.3312,0,0,0,0,0,0,0,-0.3118,-0.3124,-0.3174,-0.3176,-0.3179,-0.3189,-0.3195,-0.321,-0.3245,-0.3224,-0.3227,-0.3233,-0.3276,-0.3286,-0.3289,-0.3311,-0.331,-0.3312,-0.3313,-0.3313,-0.3334,-0.3334,0,0,0,0,0,0,-0.3111,-0.3121,-0.3172,-0.3175,-0.3152,-0.319,-0.3197,-0.3207,-0.3245,-0.3251,-0.3233,-0.3235,-0.3283,-0.3287,-0.3291,-0.3294,-0.3312,-0.3313,-0.3314,-0.3335,-0.3334,-0.3334,0,0,0,0,0,0,-0.311,-0.3115,-0.317,-0.3149,-0.3157,-0.3191,-0.3202,-0.3208,-0.3217,-0.3251,-0.3258,-0.3236,-0.3283,-0.3289,-0.3301,-0.3296,-0.3314,-0.3316,-0.3335,-0.3335,-0.3334,-0.3299,0,0,0,0,0,0,-0.3107,-0.3115,-0.3115,-0.3149,-0.3158,-0.3179,-0.3202,-0.3209,-0.322,-0.3224,-0.3256,-0.3262,-0.3284,-0.3299,-0.3303,-0.3299,-0.3317,-0.3336,-0.3335,-0.3334,-0.3301,-0.3298,-0.3295,0,0,0,0,0,-0.3105,-0.3103,-0.3115,-0.3121,-0.3159,-0.3179,-0.3184,-0.321,-0.322,-0.322,-0.3242,-0.3261,-0.3296,-0.33,-0.3305,-0.3301,-0.3336,-0.3335,-0.3334,-0.3303,-0.3298,-0.3295,0,0,0,0,0,0,-0.3068,-0.3108,-0.3121,-0.3131,-0.3151,-0.3186,-0.3187,-0.3204,-0.3222,-0.3225,-0.3256,-0.3263,-0.3272,-0.3288,-0.3291,-0.3304,-0.3319,-0.3319,-0.3293,-0.3289,-0.3286,-0.3281,-0.3319,0,0,0,0,0,-0.3061,-0.3073,-0.3108,-0.3113,-0.3122,-0.3153,-0.3163,-0.3181,-0.3203,-0.3212,-0.3235,-0.3255,-0.3271,-0.3281,-0.3298,-0.3304,-0.3311,-0.3304,-0.3301,-0.3298,-0.3297,-0.3301,-0.3298,-0.333,-0.333,-0.333,0,0,-0.3046,-0.307,-0.3076,-0.3106,-0.3124,-0.3136,-0.316,-0.3172,-0.3182,-0.3214,-0.3227,-0.3244,-0.327,-0.3279,-0.3284,-0.3293,-0.329,-0.3297,-0.3294,-0.3295,-0.33,-0.3297,-0.3294,-0.333,-0.333,-0.333,0,0,-0.3026,-0.3045,-0.3051,-0.3069,-0.3096,-0.3116,-0.3117,-0.3149,-0.3162,-0.3176,-0.32,-0.3212,-0.3239,-0.3256,-0.3268,-0.3255,-0.3272,-0.3259,-0.3242,-0.3245,-0.3243,-0.3241,-0.3235,-0.3233,-0.3259,-0.3259,-0.3259,0,-0.3004,-0.3024,-0.3052,-0.3063,-0.3075,-0.3105,-0.3111,-0.3127,-0.3158,-0.3166,-0.3175,-0.3209,-0.3228,-0.3242,-0.3239,-0.3248,-0.325,-0.3255,-0.3241,-0.3239,-0.3238,-0.3233,-0.3231,-0.3257,-0.3257,-0.3257,-0.3257,0,-0.2996,-0.3009,-0.3011,-0.304,-0.3052,-0.3061,-0.309,-0.31,-0.3117,-0.3136,-0.315,-0.3174,-0.3196,-0.3201,-0.3218,-0.3217,-0.3221,-0.3235,-0.3251,-0.3232,-0.3228,-0.3227,-0.3254,-0.3255,-0.3255,-0.3256,0,0,-0.2953,-0.2998,-0.2998,-0.3011,-0.3043,-0.3054,-0.3064,-0.3085,-0.3093,-0.3113,-0.3122,-0.3144,-0.3157,-0.3171,-0.319,-0.3194,-0.3181,-0.3207,-0.3209,-0.3201,-0.3181,-0.3169,-0.3167,-0.3193,-0.3193,-0.3193,-0.3178,0,-0.2937,-0.2956,-0.2982,-0.2992,-0.3004,-0.3033,-0.3042,-0.3062,-0.3081,-0.3094,-0.3115,-0.313,-0.3146,-0.3155,-0.316,-0.3181,-0.3177,-0.3183,-0.3201,-0.3201,-0.3193,-0.3165,-0.3153,-0.3138,-0.3177,-0.3177,-0.3177,0,-0.2921,-0.294,-0.2951,-0.2982,-0.2988,-0.2995,-0.3017,-0.303,-0.3054,-0.3067,-0.3082,-0.3103,-0.3115,-0.3129,-0.3146,-0.3149,-0.3158,-0.317,-0.317,-0.3172,-0.3187,-0.3165,-0.3134,-0.3132,-0.3175,-0.3175,-0.3175,0,-0.2888,-0.2916,-0.2926,-0.2937,-0.2974,-0.2978,-0.2993,-0.3018,-0.3029,-0.3048,-0.3056,-0.3076,-0.3087,-0.3102,-0.3128,-0.3136,-0.3141,-0.3158,-0.3152,-0.3151,-0.3151,-0.3151,-0.312,-0.3158,-0.3158,-0.3158,-0.3158,0,-0.2867,-0.2872,-0.2912,-0.2918,-0.2926,-0.2955,-0.2962,-0.298,-0.3001,-0.3012,-0.3038,-0.3047,-0.3081,-0.3094,-0.3114,-0.3124,-0.3129,-0.314,-0.3145,-0.3137,-0.3136,-0.3143,-0.3144,-0.3158,-0.3158,-0.3158,-0.3158,0,-0.283,-0.2857,-0.287,-0.2904,-0.2913,-0.2916,-0.2945,-0.2952,-0.2973,-0.2985,-0.299,-0.3022,-0.3039,-0.3066,-0.3091,-0.3104,-0.3111,-0.312,-0.3102,-0.3105,-0.3098,-0.3098,-0.3071,-0.3068,-0.3108,-0.3108,-0.3107,0,-0.2815,-0.282,-0.2854,-0.2863,-0.2877,-0.2891,-0.2903,-0.2932,-0.2943,-0.2971,-0.2975,-0.2994,-0.301,-0.3036,-0.3061,-0.308,-0.309,-0.3079,-0.3093,-0.3084,-0.3089,-0.3088,-0.3088,-0.3075,-0.3075,-0.3074,-0.3074,0,-0.2784,-0.2797,-0.2813,-0.2833,-0.2846,-0.2864,-0.2883,-0.2889,-0.2922,-0.2933,-0.2951,-0.2964,-0.2989,-0.3007,-0.303,-0.3046,-0.3065,-0.3069,-0.3069,-0.306,-0.305,-0.3055,-0.3093,-0.307,-0.307,-0.307,-0.3071,-0.3071,-0.2758,-0.2763,-0.2788,-0.2805,-0.2822,-0.2839,-0.2847,-0.2869,-0.2884,-0.2907,-0.2923,-0.2939,-0.2964,-0.2996,-0.3011,-0.3024,-0.3033,-0.3032,-0.3032,-0.3031,-0.3028,-0.3048,-0.3028,-0.3029,-0.3029,-0.3029,-0.3029,0,-0.2728,-0.2745,-0.276,-0.2786,-0.2799,-0.2816,-0.2838,-0.2847,-0.2861,-0.2882,-0.2898,-0.2918,-0.2936,-0.2963,-0.2983,-0.2988,-0.2997,-0.2992,-0.2992,-0.2995,-0.3019,-0.3017,-0.2984,-0.2984,-0.2984,-0.2984,-0.2984,-0.2984,-0.2714,-0.2724,-0.274,-0.2759,-0.2777,-0.2793,-0.2804,-0.2819,-0.2836,-0.2857,-0.2872,-0.289,-0.2913,-0.2935,-0.2952,-0.296,-0.2965,-0.2957,-0.2967,-0.2989,-0.2993,-0.2997,-0.2995,-0.2958,-0.2958,-0.2942,-0.2942,-0.2941]},{"header":{"parameterUnit":"m.s-1","parameterCategory":1,"la1":30.2991,"la2":30.254,"lo1":-89.0895,"lo2":-89.0444,"dy":0.0017,"dx":0.0017,"nx":28,"ny":28,"refTime":"2026-02-25T03:00:00:Z","depth":0,"parameterNumber":3,"parameterNumberName":"V-component_of_WINDS"},"data":[0,0,0,0,0,0,0,0,0,0,0,0,0,0,0,0,0,0,0,0,0,0,0,0,0,0,0,0,0,0,0,0,0,0,0,0,0,0,0,0,0,0,0,0,0,0,0,0,0,0,0,0,0,0,0,0,0,0,2.9731,2.9732,0,2.9792,2.9793,2.9793,2.9786,2.9785,2.9784,2.9783,2.9843,2.9846,2.9848,0,0,0,0,0,0,0,0,0,0,0,0,0,2.9606,2.9608,2.9731,2.9732,2.9732,2.9792,2.9793,2.9793,2.9786,2.9785,2.9783,2.9782,2.9842,2.9845,2.9848,0,0,0,0,0,0,0,0,0,0,0,0,0,2.9663,2.9609,2.9731,2.9736,2.9737,2.9792,2.9793,2.9794,2.9786,2.9785,2.9783,2.9782,2.9841,2.9845,2.9849,2.9902,0,0,2.986,2.9862,0,0,0,0,0,0,0,0,2.966,2.9668,2.9734,2.9736,2.9737,2.978,2.9771,2.983,2.9787,2.9767,2.9783,2.9781,2.9823,2.9828,2.9843,2.9905,2.9907,2.9861,2.9863,2.9865,2.9866,0,0,0,0,0,0,0,2.9656,2.9665,2.9755,2.9735,2.9737,2.9735,2.9741,2.9782,2.9803,2.9769,2.9769,2.9776,2.9824,2.9839,2.9844,2.9908,2.9861,2.9864,2.9866,2.9868,3.0017,3.0018,0,0,0,0,0,0,2.9651,2.9662,2.9753,2.9757,2.9694,2.9738,2.9745,2.9767,2.9802,2.9806,2.9777,2.9775,2.9834,2.984,2.9846,2.9912,2.9865,2.9868,2.987,3.0015,3.0017,3.0019,0,0,0,0,0,0,2.9648,2.9659,2.9751,2.9709,2.9721,2.9742,2.9767,2.9769,2.9785,2.9809,2.9812,2.979,2.9833,2.9841,2.9888,2.9914,2.987,2.9873,3.0013,3.0016,3.0018,3.0042,0,0,0,0,0,0,2.9645,2.9658,2.9679,2.971,2.9723,2.9792,2.9768,2.9772,2.9792,2.979,2.9821,2.9825,2.9832,2.9883,2.9892,2.9918,2.9876,3.0011,3.0014,3.0017,3.0039,3.0045,3.005,0,0,0,0,0,2.964,2.9683,2.968,2.9691,2.975,2.9794,2.9801,2.9809,2.9794,2.9815,2.983,2.9824,2.9909,2.9888,2.9898,2.9926,3.001,3.0013,3.0017,3.0037,3.0044,3.005,0,0,0,0,0,0,2.9654,2.9687,2.9684,2.9738,2.9763,2.9792,2.9819,2.9817,2.9846,2.9843,2.9851,2.9858,2.9906,2.992,2.9896,2.9979,2.9957,2.9963,2.9968,2.9976,2.9981,2.9977,2.988,0,0,0,0,0,2.9663,2.9697,2.9724,2.9769,2.9781,2.9798,2.9818,2.9822,2.9848,2.9858,2.9877,2.9902,2.9934,2.9955,2.9986,3.0041,3.0048,3.0064,3.007,3.0074,3.008,3.011,3.0119,3.0032,3.0031,3.0031,0,0,2.9683,2.9705,2.9726,2.9772,2.9792,2.9826,2.9807,2.9844,2.987,2.9864,2.991,2.9924,2.9952,3.0004,3.0027,3.0017,3.0105,3.0079,3.0083,3.0086,3.0115,3.0123,3.0131,3.0034,3.0034,3.0033,0,0,2.9736,2.9756,2.9797,2.9817,2.9848,2.9858,2.9868,2.9898,2.9907,2.9954,2.995,2.998,3.0035,3.0056,3.0074,3.0135,3.0131,3.0145,3.0174,3.0204,3.0211,3.0217,3.024,3.0248,3.015,3.015,3.015,0,2.9757,2.981,2.9817,2.9855,2.9876,2.9872,2.9913,2.9932,2.9971,2.9985,2.9973,3.0043,3.0061,3.0118,3.0133,3.0147,3.0158,3.0142,3.0209,3.0215,3.0221,3.0243,3.0252,3.0152,3.0151,3.0151,3.0151,0,2.9834,2.987,2.9898,2.9937,2.9961,3.0,3.0013,3.0036,3.0037,3.0049,3.0097,3.0119,3.0155,3.0168,3.017,3.0225,3.0218,3.0207,3.0186,3.0231,3.0252,3.026,3.0154,3.0153,3.0153,3.0152,0,0,2.9899,2.9941,2.9952,2.997,3.0003,3.0031,3.0069,3.0105,3.0125,3.0151,3.0184,3.0231,3.0222,3.0242,3.0246,3.0271,3.032,3.0258,3.0259,3.027,3.0383,3.0392,3.0402,3.0316,3.0318,3.0319,3.0381,0,2.9957,3.0026,3.0034,3.0096,3.013,3.0126,3.016,3.0184,3.0196,3.0226,3.0238,3.0272,3.0256,3.0269,3.0294,3.0309,3.0343,3.0304,3.0347,3.0349,3.0342,3.0412,3.0422,3.0479,3.0389,3.039,3.0391,0,3.0034,3.0064,3.013,3.0159,3.0173,3.0203,3.0237,3.0266,3.0292,3.0299,3.0322,3.0322,3.0361,3.0337,3.0392,3.0365,3.0383,3.0393,3.0395,3.0401,3.0374,3.0421,3.0497,3.0506,3.0404,3.0403,3.0402,0,3.0077,3.0133,3.018,3.0195,3.023,3.0251,3.0266,3.0292,3.0313,3.0342,3.0355,3.0388,3.0406,3.0431,3.044,3.0422,3.0495,3.0471,3.0502,3.0502,3.0519,3.0518,3.0601,3.0528,3.0528,3.0528,3.0527,0,3.0142,3.0182,3.02,3.0229,3.0274,3.0282,3.0326,3.034,3.0362,3.0394,3.0392,3.0421,3.0431,3.0461,3.0468,3.0513,3.0521,3.0527,3.0529,3.0529,3.0528,3.0542,3.0538,3.053,3.0529,3.0529,3.0528,0,3.0198,3.0211,3.0262,3.0291,3.0299,3.0331,3.0355,3.0383,3.0394,3.0434,3.0443,3.0461,3.0497,3.0508,3.0551,3.0556,3.0608,3.0606,3.06,3.0601,3.0631,3.0629,3.0727,3.074,3.0657,3.0658,3.0659,0,3.024,3.0271,3.0303,3.0324,3.0341,3.0375,3.0396,3.0405,3.0427,3.046,3.0484,3.052,3.0549,3.0607,3.0623,3.0656,3.0655,3.0687,3.066,3.0659,3.0657,3.0656,3.0659,3.0692,3.0693,3.0694,3.0695,0,3.0312,3.0317,3.0349,3.0383,3.041,3.0437,3.0463,3.048,3.0492,3.0517,3.0555,3.0577,3.0622,3.0658,3.0691,3.0706,3.0703,3.0703,3.0712,3.0713,3.0709,3.0713,3.0615,3.0701,3.07,3.07,3.0699,3.0699,3.0364,3.0392,3.0419,3.0454,3.0475,3.0499,3.0527,3.0542,3.0573,3.0611,3.0613,3.0654,3.0679,3.0724,3.0741,3.0772,3.0763,3.0776,3.0779,3.0783,3.0786,3.0702,3.0778,3.0778,3.0778,3.0778,3.0777,0,3.0438,3.0455,3.0487,3.0524,3.0552,3.0546,3.0575,3.0599,3.0635,3.0659,3.0688,3.0731,3.0765,3.0784,3.0818,3.084,3.0839,3.0849,3.0848,3.0852,3.0792,3.0781,3.0849,3.0849,3.0849,3.0849,3.0849,3.0849,3.048,3.0527,3.0535,3.0592,3.0609,3.0649,3.0666,3.0688,3.0708,3.0756,3.0785,3.0797,3.082,3.0855,3.0887,3.0891,3.0905,3.0916,3.0919,3.0863,3.0856,3.0849,3.0839,3.0918,3.0918,3.0977,3.0978,3.0978]}]]